COSMOS 2251 DEB, 33832

Orbit data source: Space-Track

COSMOS 2251 DEB, 33832 is space debris in LEO originally from a launch on Wed, 16 Jun 1993 UTC launched from the Plesetsk Missile And Space Complex (PKMTR). The debris from Iridium 33, an American commercial communications satellite, has been tracked extensively since its accidental collision with the defunct Russian satellite Cosmos 2251 in 2009. This event, occurring at high speed in low Earth orbit (LEO), generated thousands of pieces of space debris, significantly increasing the risk of further collisions. The Iridium 33 debris cloud has impacted space traffic management and orbital debris mitigation strategies, making it a subject of ongoing study in space situational awareness.

Loading next visibility...
Identifier
33832, 1993-036BZ
Orbit
LEO
Country
Flag of CISCIS
Related business
Manufacturer
Unknown
Mission
Spacecraft
Bus & Motor
Unknown
Mass
Unknown
Launch date (UTC)
1993-06-16 (33 years ago)
Launch vehicle
Unknown
Launch site
Plesetsk Missile And Space Complex (PKMTR)
Object type
Payload
Rocket body
Debris
Shape & HBR
Unknown shape, 0.1 m
Radar Cross Section
Medium (>0.1 m² and <1 m²)

Expand to show TLE details & history
Last TLE update: 2 days ago

TLE from 2 days ago
0 COSMOS 2251 DEB
1 33832U 93036BZ  26171.08701594  .00003527  00000-0  69013-3 0  9990
2 33832  74.0532 207.8959 0022473 198.8840 190.9254 14.63071765911920
Epoch: 2026-06-20T02:05Z
TLE epoch observation values (Epoch: 2026-06-20T02:05:18.177Z)
Latitude
28.55999°
Longitude
-82.83732°
Altitude
702.097 km
Speed
7.499 km/s
True Right ascension
14h 27m 10s
True Declination
28° 24' 53"
Sunlit
Object was in daylight at epoch
Visualization orbit readout
Latitude
Unknown
Longitude
Unknown
Altitude
Unknown
Speed
Unknown
Apparent Right ascension
Unknown
Apparent Declination
Unknown
Sunlit
N/A
Visualization observer readout
Local Sidereal Time
23:18:25
Azimuth
Unknown
Elevation
Unknown
Doppler factor
Unknown
Orbital elements
Apogee altitude
696.729 km
Perigee altitude
665.002 km
Semi-major axis
7,059.003 km
Eccentricity
0.00225
Inclination
74.0532°
RAAN
207.8959°
Arg. of periapsis
198.884°
True anomaly
190.87673°
Mean anomaly
190.9254°
Eccentric anomaly
190.90105°
Mean motion
3.65955 °/min
Orbital period
98.37 mins
BSTAR
0.00069013
Loading maneuver chart data...
Computing Atmospheric mass density...

Documentation

Showing up to 5 results
|